Weather History for KLWS - April, 2014

Change the Weather History Date:

Thursday, April 17, 2014

  Actual Average Record
Temperature  
Mean Temperature 51 °F 51 °F  
Max Temperature 54 °F 63 °F 90 °F (1936)
Min Temperature 47 °F 40 °F 25 °F (1964)
Degree Days  
Heating Degree Days 14 14  
Month to date heating degree days 225 256  
Since 1 July heating degree days 4983 4723  
Cooling Degree Days 0 0  
Month to date cooling degree days 0 0  
Year to date cooling degree days 0 0  
Moisture  
Dew Point 43 °F    
Average Humidity 74    
Maximum Humidity 86    
Minimum Humidity 61    
Precipitation  
Precipitation 0.25 in 0.05 in 0.61 in (1947)
Month to date precipitation 0.45 0.71  
Year to date precipitation 4.22 3.72  
Snow  
Snow 0.00 in 0.00 in 0.40 in (1972)
Month to date snowfall 0.0 0.0  
Since 1 July snowfall 16.5 10.5  
Snow Depth 0.00 in    
Sea Level Pressure  
Sea Level Pressure 29.85 in    
Wind  
Wind Speed 3 mph (SSE)    
Max Wind Speed 12 mph    
Max Gust Speed 13 mph    
Visibility 10 miles    
Events Rain    
T = Trace of Precipitation, MM = Missing Value Source: NWS Daily Summary

Daily Weather History Graph

Daily Weather History Graph

Search for Another Location

Airport or City:

Trip Planner

Search our weather history database for the weather conditions in past years. The results will help you decide how hot, cold, wet, or windy it might be!

Date:

Astronomy

Apr. 17, 2014 Rise Set
Actual Time 5:57 AM PDT 7:38 PM PDT
Civil Twilight 5:25 AM PDT 8:10 PM PDT
Nautical Twilight 4:47 AM PDT 8:49 PM PDT
Astronomical Twilight 4:05 AM PDT 9:31 PM PDT
Moon 10:36 PM PDT (4/17) 7:26 AM PDT (4/17)
Length of Visible Light 14h 44m
Length of Day
13h 41m
Waning Gibbous, 93% of the Moon is Illuminated
Apr 17
Waning Gibbous
Apr 22
Last Quarter
Apr 28
New
May 6
First Quarter
May 14
Full

Hourly Weather History & Observations

Time (PDT) Temp. Dew Point Humidity Pressure Visibility Wind Dir Wind Speed Gust Speed Precip Events Conditions
12:56 AM 48.9 °F 35.1 °F 59% 29.97 in 10.0 mi South 3.5 mph - N/A   Overcast
1:56 AM 48.0 °F 37.0 °F 66% 29.96 in 10.0 mi SE 4.6 mph - N/A   Overcast
2:56 AM 48.9 °F 37.0 °F 64% 29.94 in 10.0 mi Calm Calm - N/A   Overcast
3:56 AM 50.0 °F 37.0 °F 61% 29.92 in 10.0 mi East 6.9 mph - N/A   Overcast
4:56 AM 48.9 °F 37.9 °F 66% 29.91 in 10.0 mi Calm Calm - 0.00 in Rain Light Rain
5:56 AM 48.0 °F 37.9 °F 68% 29.90 in 10.0 mi NE 5.8 mph - 0.00 in   Overcast
6:56 AM 46.9 °F 39.9 °F 77% 29.89 in 10.0 mi ESE 3.5 mph - 0.00 in   Overcast
7:56 AM 48.0 °F 39.9 °F 74% 29.89 in 10.0 mi East 3.5 mph - 0.00 in Rain Light Rain
8:56 AM 48.2 °F 41.0 °F 76% 29.87 in 10.0 mi ENE 3.5 mph - N/A Rain Light Rain
9:56 AM 48.2 °F 42.8 °F 82% 29.86 in 10.0 mi Calm Calm - N/A   Overcast
10:56 AM 51.1 °F 41.0 °F 68% 29.87 in 10.0 mi Calm Calm - N/A   Overcast
11:56 AM 52.0 °F 42.1 °F 69% 29.85 in 10.0 mi South 4.6 mph - N/A   Overcast
12:56 PM 54.0 °F 42.1 °F 64% 29.84 in 10.0 mi Calm Calm - 0.00 in Rain Light Rain
1:56 PM 53.1 °F 44.1 °F 71% 29.83 in 10.0 mi West 3.5 mph - 0.01 in Rain Light Rain
2:38 PM 53.1 °F 44.1 °F 71% 29.81 in 10.0 mi West 4.6 mph - 0.00 in Rain Light Rain
2:56 PM 52.0 °F 44.1 °F 74% 29.82 in 10.0 mi West 4.6 mph - 0.00 in Rain Light Rain
3:18 PM 53.1 °F 45.0 °F 74% 29.81 in 10.0 mi Calm Calm - 0.01 in Rain Light Rain
3:56 PM 53.1 °F 46.0 °F 77% 29.81 in 10.0 mi Calm Calm - 0.02 in Rain Light Rain
4:03 PM 53.1 °F 45.0 °F 74% 29.80 in 10.0 mi Calm Calm - 0.00 in Rain Light Rain
4:56 PM 53.1 °F 46.0 °F 77% 29.80 in 10.0 mi Calm Calm - 0.02 in Rain Light Rain
5:39 PM 53.1 °F 45.0 °F 74% 29.79 in 10.0 mi Calm Calm - 0.00 in Rain Light Rain
5:56 PM 53.1 °F 46.0 °F 77% 29.80 in 10.0 mi SE 3.5 mph - 0.00 in Rain Light Rain
6:46 PM 52.0 °F 46.0 °F 80% 29.79 in 5.0 mi Calm Calm - 0.04 in Rain Light Rain
6:56 PM 52.0 °F 46.0 °F 80% 29.80 in 5.0 mi WNW 3.5 mph - 0.05 in Rain Light Rain
7:29 PM 51.1 °F 46.0 °F 83% 29.80 in 5.0 mi Variable 3.5 mph - 0.04 in Rain Rain
7:56 PM 50.0 °F 46.0 °F 86% 29.81 in 9.0 mi WNW 5.8 mph - 0.07 in Rain Light Rain
8:42 PM 50.0 °F 46.0 °F 86% 29.81 in 8.0 mi Calm Calm - 0.05 in Rain Light Rain
8:56 PM 50.0 °F 46.0 °F 86% 29.83 in 10.0 mi SE 3.5 mph - 0.07 in Rain Light Rain
9:56 PM 50.0 °F 46.0 °F 86% 29.82 in 10.0 mi ESE 5.8 mph - 0.00 in Rain Light Rain
10:56 PM 51.1 °F 42.1 °F 71% 29.81 in 10.0 mi South 11.5 mph - 0.00 in   Overcast
11:56 PM 48.9 °F 44.1 °F 83% 29.81 in 10.0 mi WSW 3.5 mph - N/A   Clear